Vertical_Velocity
2 0 1 1 -0 0 -0 0 0 -0 0 1 2 0 -1 -0 0 -2 1 2 -0 -1 -1 -1 1 -2 -1 -0 -0 0 -1 -2 -0 1 0 0 -0 1 -0 3 1 -1 -3
1 -0 0 1 1 -0 -1 -1 -1 1 0 0 1 3 1 -0 -1 -0 -0 -0 -0 -1 0 1 0 -1 -1 -0 0 -2 -0 -1 -1 1 1 1 -1 0 0 1 0 -1 1
-13 2 3 3 2 1 0 -0 -1 -1 1 1 0 1 1 -0 -1 0 0 -0 -1 0 -0 1 -1 -1 -2 -1 -1 0 -0 -1 -3 1 1 0 -1 2 1 1 2 -0 2
2 -7 -3 -3 -2 1 0 0 -1 -1 -1 1 1 1 1 1 0 0 1 -0 -1 -2 0 1 2 -0 -0 1 1 -1 -0 -3 -1 -2 -0 -0 -2 1 2 2 3 -2 0
-4 -6 -8 -5 -4 -5 -3 -3 0 0 0 1 1 1 1 1 1 0 1 0 -1 -0 -0 0 -1 -1 1 -0 2 -0 -1 -1 -3 0 0 -0 1 -0 -0 1 -1 0 -0
-1 1 3 -3 -11 -5 -3 -4 -2 -1 -1 -2 -2 -0 -0 1 -1 2 1 -0 0 1 -1 0 -2 -0 -1 1 0 1 -1 -1 -1 1 -1 -0 1 -0 -2 -1 10 7 -6
-1 2 2 1 -0 8 7 1 1 2 1 0 0 -1 -0 0 -0 -0 0 0 0 -1 -1 -1 -2 -1 -0 0 1 0 -1 -2 -1 2 1 2 2 -1 1 -0 5 1 1
1 -1 1 -1 1 2 -0 8 2 -1 -1 2 2 0 1 0 -0 -0 1 2 -1 2 1 -1 -1 -1 -1 -0 0 -0 -1 -2 -1 0 1 1 -0 -2 -2 -1 -2 7 -2
-0 -2 1 1 -1 1 1 1 1 3 1 3 -1 2 1 0 0 1 2 1 1 -0 1 -1 -1 1 1 -1 -0 1 -0 0 -0 1 3 0 1 -1 -1 4 -2 -2 -2
-0 -0 1 -1 1 -0 0 1 3 -3 6 5 2 -1 0 0 0 1 1 2 1 0 1 0 -2 2 1 1 -1 -1 1 1 -1 1 0 -1 -1 -1 -1 -1 1 -2 -1
1 0 0 1 2 -1 1 2 1 0 -0 5 5 3 0 1 1 0 1 1 2 -1 2 -1 1 1 0 1 -1 1 2 -1 0 2 -2 -1 -2 -1 7 1 1 -3 -1
-0 -0 1 0 -0 0 -0 1 0 1 3 4 3 4 2 2 2 0 -0 1 1 -0 1 0 -0 0 -1 1 -1 -0 -2 1 -0 -2 -2 -0 -5 -1 -1 -0 2 0 -0
1 -1 0 -1 0 1 -1 -1 0 1 -2 2 1 3 -7 1 2 0 -0 -1 1 -1 -0 1 2 -1 0 2 -1 1 1 -2 0 -0 -3 -0 -1 1 5 5 5 2 1
-3 -2 -2 -1 -2 0 0 -1 -1 0 1 -2 -1 2 2 1 -1 1 2 1 -0 1 -0 1 1 0 1 0 0 -0 -2 -0 -3 -0 -1 0 -2 -2 13 3 11 17 -9
0 -1 -2 -3 -2 -1 -0 2 1 -1 -3 -0 1 1 2 1 1 1 -1 -1 -1 1 0 0 2 -1 1 -0 1 -0 -0 1 -4 -3 -0 -0 -6 9 6 13 31 11 2
4 -2 -0 -3 -2 -1 -1 0 2 0 -1 -1 -0 -1 -0 -0 0 3 2 -0 0 0 -0 -0 1 -0 1 1 2 0 -1 2 -3 -1 1 0 -6 4 7 58 67 28 -5
-3 4 -0 -0 -0 0 -2 -0 4 -2 3 -1 -1 0 -1 -1 -1 -2 3 4 0 0 1 0 0 0 1 1 3 -0 -1 2 -4 1 -1 1 -5 -2 -0 -16 8 28 24
7 -4 -0 3 -1 0 1 -1 0 4 0 4 3 -1 1 -1 -2 -1 -2 2 0 1 -1 2 -1 0 2 1 1 1 0 1 -3 -2 -0 -0 -3 2 -1 -6 -4 16 22
-0 5 1 -4 2 3 2 4 2 -2 1 -2 -3 -1 -2 -2 -5 -1 0 -2 -0 1 -0 -0 1 2 1 2 -1 1 1 1 -2 -2 -1 -0 5 -4 3 4 4 5 -2
6 4 3 7 -2 -0 3 2 4 0 4 -1 -3 -7 6 -3 -3 -1 -1 -1 -3 0 -1 0 2 -0 1 1 -0 1 2 2 -2 -3 -1 -1 -0 -0 -5 -0 -3 8 1
-3 -2 3 8 3 4 -3 1 6 1 3 6 -5 1 -7 5 2 -4 -1 0 -2 -1 2 1 -1 1 -2 4 -2 -1 -0 2 0 -2 -3 2 -4 0 -2 -0 -1 2 2
2 2 -2 -2 2 6 6 -2 5 -1 3 3 2 3 -5 2 6 -6 1 2 0 0 -2 6 -2 -3 -1 2 2 -0 -3 3 -1 -1 -1 -4 11 2 5 2 2 -1 1
-4 -4 -3 1 -1 -1 7 4 2 3 6 -1 4 7 -0 1 -2 4 -2 -2 1 3 0 1 3 -1 -2 1 2 -1 -0 -1 -1 -4 -2 4 32 9 5 1 5 9 4
-3 -4 -4 -5 -2 -0 -1 2 -1 3 4 0 -4 2 1 -2 0 2 4 -1 -2 1 1 1 0 0 -2 4 -3 2 2 -0 -2 5 15 12 6 5 -0 22 1 1 2
-4 -3 -4 -5 -3 -5 -3 3 -0 1 2 4 -2 1 2 4 4 -2 -1 4 -4 0 2 2 -1 3 1 -1 2 -2 1 5 -2 24 24 3 0 5 4 1 0 3 4
-5 -4 -5 -2 -3 -4 -4 -1 1 0 1 5 3 1 0 7 3 0 -2 -1 -0 -2 1 3 -1 -1 -1 -1 2 0 1 9 1 6 1 13 20 3 7 10 6 15 14
Height
5841 5843 5844 5846 5848 5850 5851 5852 5853 5855 5857 5858 5859 5859 5859 5859 5860 5861 5861 5861 5862 5863 5862 5862 5862 5863 5864 5864 5865 5867 5868 5870 5871 5871 5871 5873 5874 5875 5876 5878 5879 5881 5881
5837 5840 5842 5843 5845 5845 5847 5849 5850 5851 5853 5854 5855 5855 5856 5856 5858 5859 5859 5859 5861 5861 5860 5860 5860 5861 5862 5863 5864 5865 5866 5868 5869 5869 5870 5871 5873 5875 5875 5877 5878 5879 5881
5827 5832 5836 5838 5840 5842 5843 5844 5845 5846 5848 5850 5851 5852 5853 5853 5854 5855 5856 5856 5858 5858 5858 5857 5857 5858 5860 5861 5862 5862 5863 5866 5868 5867 5868 5870 5871 5873 5875 5876 5877 5878 5880
5825 5826 5831 5831 5833 5835 5836 5837 5839 5841 5843 5845 5847 5848 5849 5851 5851 5852 5852 5853 5854 5855 5855 5855 5855 5855 5857 5859 5859 5860 5861 5863 5865 5866 5866 5867 5869 5871 5872 5874 5876 5877 5878
5822 5822 5821 5825 5828 5831 5832 5833 5834 5835 5837 5839 5841 5843 5845 5846 5849 5849 5849 5850 5851 5852 5852 5852 5851 5853 5854 5855 5857 5858 5858 5859 5861 5863 5863 5864 5865 5867 5869 5870 5872 5875 5876
5820 5820 5819 5818 5818 5822 5826 5828 5831 5833 5834 5835 5837 5839 5840 5842 5844 5846 5846 5848 5848 5849 5849 5849 5849 5850 5851 5852 5854 5855 5856 5856 5857 5859 5860 5861 5862 5864 5866 5867 5869 5871 5875
5817 5818 5818 5820 5822 5823 5822 5821 5822 5824 5827 5829 5832 5834 5837 5838 5839 5841 5842 5844 5845 5846 5846 5846 5846 5847 5848 5850 5851 5852 5853 5854 5854 5856 5856 5858 5859 5861 5863 5864 5865 5866 5870
5812 5813 5814 5815 5817 5820 5821 5824 5821 5821 5822 5824 5826 5828 5830 5833 5835 5837 5838 5840 5842 5842 5842 5843 5844 5844 5845 5846 5847 5848 5849 5850 5851 5852 5853 5854 5855 5858 5859 5860 5861 5862 5866
5807 5808 5809 5809 5811 5813 5815 5817 5819 5821 5821 5822 5822 5823 5825 5827 5829 5831 5833 5835 5837 5837 5838 5839 5841 5842 5842 5842 5842 5843 5844 5846 5846 5848 5849 5851 5853 5855 5857 5858 5859 5861 5863
5802 5802 5803 5804 5805 5806 5808 5810 5812 5813 5815 5816 5818 5818 5819 5821 5821 5826 5828 5830 5832 5833 5833 5835 5836 5837 5838 5838 5838 5838 5839 5841 5842 5842 5845 5847 5849 5852 5854 5854 5857 5858 5860
5795 5796 5797 5798 5798 5800 5802 5804 5805 5806 5807 5809 5810 5812 5814 5815 5816 5819 5822 5824 5827 5828 5828 5830 5832 5833 5833 5834 5834 5833 5835 5836 5837 5838 5840 5842 5845 5847 5849 5851 5853 5855 5857
5787 5788 5789 5790 5791 5792 5793 5795 5797 5798 5799 5801 5803 5805 5806 5808 5810 5812 5815 5818 5820 5822 5824 5825 5827 5827 5827 5828 5829 5829 5830 5831 5832 5833 5835 5838 5841 5842 5844 5846 5849 5851 5853
5778 5779 5780 5781 5782 5783 5785 5787 5788 5789 5790 5792 5794 5796 5800 5802 5804 5806 5809 5812 5814 5816 5817 5820 5821 5821 5823 5824 5824 5824 5826 5826 5826 5826 5831 5834 5835 5836 5838 5840 5843 5845 5848
5768 5769 5769 5771 5772 5773 5774 5776 5778 5780 5782 5783 5784 5788 5792 5794 5795 5798 5801 5804 5807 5809 5811 5813 5814 5815 5817 5818 5819 5820 5821 5821 5822 5821 5826 5829 5830 5830 5832 5834 5835 5842 5846
5756 5756 5757 5759 5760 5761 5763 5765 5767 5769 5771 5773 5776 5779 5782 5784 5787 5790 5793 5796 5798 5802 5804 5807 5808 5809 5811 5812 5814 5816 5816 5817 5816 5817 5821 5824 5825 5827 5826 5833 5797 5832 5841
5743 5743 5743 5744 5746 5748 5750 5752 5755 5757 5759 5762 5765 5767 5771 5773 5776 5780 5783 5786 5789 5793 5796 5799 5801 5803 5804 5807 5808 5810 5812 5812 5812 5813 5816 5819 5820 5821 5824 5825 5804 5827 5839
5726 5727 5728 5730 5731 5733 5736 5739 5741 5744 5747 5749 5752 5755 5759 5763 5766 5769 5773 5777 5780 5784 5787 5791 5794 5796 5798 5801 5802 5804 5807 5807 5808 5810 5811 5814 5816 5816 5824 5825 5821 5824 5829
5708 5708 5709 5711 5714 5716 5719 5723 5726 5728 5732 5737 5740 5743 5747 5751 5755 5758 5762 5767 5771 5774 5778 5781 5785 5788 5791 5793 5795 5797 5800 5800 5802 5804 5805 5809 5811 5813 5817 5822 5822 5822 5825
5685 5687 5688 5689 5692 5696 5699 5704 5708 5713 5716 5720 5724 5729 5734 5739 5742 5746 5750 5755 5760 5764 5769 5773 5776 5779 5783 5785 5787 5789 5792 5793 5795 5798 5798 5803 5807 5812 5814 5816 5820 5823 5825
5658 5660 5662 5665 5668 5672 5677 5682 5687 5692 5699 5704 5708 5715 5720 5725 5729 5733 5738 5743 5748 5753 5758 5763 5766 5769 5773 5776 5780 5780 5783 5786 5788 5792 5792 5798 5802 5804 5809 5812 5815 5819 5822
5629 5629 5631 5635 5640 5646 5650 5657 5663 5670 5677 5683 5691 5698 5705 5710 5715 5720 5725 5730 5736 5743 5746 5752 5756 5760 5762 5767 5771 5773 5775 5777 5780 5785 5788 5790 5794 5797 5802 5806 5811 5813 5816
5597 5595 5596 5600 5604 5613 5622 5628 5636 5644 5652 5660 5670 5679 5687 5695 5701 5705 5712 5718 5723 5730 5736 5741 5745 5749 5754 5758 5762 5766 5767 5769 5772 5775 5781 5782 5790 5792 5796 5799 5804 5808 5812
5563 5563 5563 5565 5569 5575 5584 5596 5606 5615 5626 5636 5648 5658 5666 5677 5685 5691 5697 5704 5711 5717 5723 5729 5735 5739 5744 5749 5753 5757 5760 5763 5767 5769 5773 5775 5781 5784 5791 5794 5798 5801 5805
5538 5534 5534 5535 5537 5541 5549 5559 5573 5585 5597 5608 5620 5634 5646 5655 5666 5674 5680 5688 5697 5704 5711 5717 5723 5728 5733 5740 5744 5748 5753 5757 5762 5765 5765 5771 5773 5776 5782 5786 5790 5795 5799
5518 5514 5511 5509 5511 5513 5519 5528 5538 5553 5566 5579 5593 5608 5620 5634 5645 5656 5664 5672 5680 5689 5696 5705 5711 5716 5723 5728 5735 5738 5744 5750 5754 5760 5764 5765 5769 5772 5776 5779 5782 5786 5791
5502 5499 5496 5494 5492 5492 5494 5501 5511 5523 5537 5551 5565 5581 5596 5612 5623 5635 5645 5656 5663 5673 5682 5690 5699 5705 5711 5717 5724 5730 5735 5741 5745 5749 5752 5754 5761 5764 5768 5772 5775 5780 5784